Regional Weather Roundup
Issued by NWS Cleveland, OH

Home | Current Version | Previous Version | Graphics & Text | Print | Product List | Glossary On
Versions: 1 2 3 4 5 6 7 8 9 10 11 12 13 14 15 16 17 18 19 20 21 22 23 24 25 26 27 28 29 30 31 32 33 34 35 36 37 38 39 40 41 42 43 44 45 46 47 48 49 50
000
ASUS41 KCLE 040100
RWRCLE
OHIO REGIONAL WEATHER ROUNDUP
NATIONAL WEATHER SERVICE WILMINGTON, OH
900 PM EDT MON AUG 03 2015

NOTE: "FAIR" INDICATES FEW OR NO CLOUDS BELOW 12,000 FEET WITH NO
SIGNIFICANT WEATHER AND/OR OBSTRUCTIONS TO VISIBILITY.

OHZ001>008-015>018-024>027-034-035-043-044-040200-
   NORTHWEST OHIO

CITY           SKY/WX    TMP DP  RH WIND       PRES   REMARKS
DEFIANCE       CLEAR     71  53  52 NW6       29.88R
FINDLAY        CLEAR     75  57  53 NW14      29.85R
TOLEDO EXPRESS CLEAR     71  52  50 W9        29.85R
TOLEDO EXEC    CLEAR     74  53  48 W13       29.85R
LIMA           CLEAR     74  58  57 NW10G20   29.87R
$$

OHZ009>014-019>023-028>033-038-089-040200-
   NORTHEAST OHIO

CITY           SKY/WX    TMP DP  RH WIND       PRES   REMARKS
CLE-HOPKINS    PTCLDY    71  62  73 N3        29.83R
CLE-LAKEFRONT  MOCLDY    72  63  73 NW3       29.80R
CUY CO. ARPT   TSTM      66  63  88 W9        29.84R
LORAIN-ELYRIA  MOCLDY    74  63  68 NW5       29.82R
ASHTABULA      PTCLDY    71  63  75 CALM      29.82R
AKRON-CANTON   PTCLDY    75  63  66 W6        29.82S
WOOSTER        NOT AVBL
MANSFIELD      PTCLDY    74  62  66 W6        29.85R
YOUNGSTOWN     PTCLDY    70  60  70 CALM      29.82S
$$

OHZ042-051>053-060>062-070>072-077>081-040200-
  SOUTHWEST OHIO

CITY           SKY/WX    TMP DP  RH WIND       PRES   REMARKS
CINC-COVINGTON MOCLDY    71  66  84 NE7       29.87S
CINC-LUNKEN    MOCLDY    69  32  25 S3        29.87R
HAMILTON       TSTM      69  68  96 W3        29.88S FOG
DAYTON         NOT AVBL
WRIGHT-PAT AFB CLEAR     70  65  85 SW5       29.86R
DAYTON GENERAL PTCLDY    70  63  78 CALM      29.87S
WILMINGTON     MOCLDY    71  60  68 NW7       29.87S
$$

OHZ036-037-039>041-045>050-054>059-063>069-073>076-082>088-040200-
  CENTRAL AND SOUTHEAST OHIO

CITY           SKY/WX    TMP DP  RH WIND       PRES   REMARKS
COLUMBUS       PTCLDY    78  62  57 W9        29.83S
OSU AIRPORT    CLEAR     70  65  84 W8        29.84S
BOLTON FIELD   NOT AVBL
RICKENBACK AFB NOT AVBL
NEWARK         MOCLDY    78  69  73 SW6       29.83S
MARION         CLEAR     75  63  66 W6        29.85R
LANCASTER      PTCLDY    76  67  73 W9        29.84F
ZANESVILLE     MOCLDY    77  67  71 S5        29.83F
NEW PHILLY     MOCLDY    77  68  73 SW5       29.82S
$$



USA.gov is the U.S. government's official web portal to all federal, state and local government web resources and services.